#timestamp,LO_Frequency,Hit 
1499713215.8,286047004.4,N
1499713235.6,286047004.1,N
1499713255.5,286047001.3,N
1499713275.3,286047002.0,N
1499713295.1,286047004.0,N
1499713315.9,286047004.0,N
1499713335.7,286047003.6,N
1499713355.5,286047004.1,N
1499713375.4,286047005.5,N
1499713395.2,286047003.0,N
1499713415.0,286047005.3,N
1499713415.9,286047005.3,N
1499713435.7,286047004.8,N
1499713455.6,286047005.5,N
1499713475.4,286047004.8,N
1499713495.2,286047005.0,N
1499713515.1,286047005.7,N
1499713516.0,286047005.7,N
1499713535.8,286047005.8,N
1499713555.6,286047003.4,N
1499713575.5,286047004.7,N
1499713595.3,286047004.6,N
1499713615.1,286047007.3,N
1499713635.9,286047008.5,N
1499713655.7,286047006.7,N
1499713675.5,286047007.1,N
1499713695.4,286047008.3,N
1499713715.2,286047006.7,N
1499713735.0,286047007.2,N
1499713735.9,286047007.2,N
1499713755.8,286047004.5,N
1499713775.6,286047007.0,N
1499713795.4,286047006.3,N
1499713815.3,286047006.1,N
1499713835.1,286047005.7,N
1499713836.0,286047005.7,N
1499713855.8,286047002.9,N
1499713875.6,286047004.6,N
1499713895.5,286047006.4,N
1499713915.3,286047008.3,N
1499713935.1,286047008.3,N
1499713955.9,286047008.6,N
1499713975.7,286047008.9,N
1499713995.5,286047007.0,N
1499714015.4,286047006.6,N
1499714035.2,286047008.9,N
1499714055.0,286047007.7,N
1499714055.9,286047007.7,N
1499714075.8,286047009.5,N
1499714095.6,286047008.0,N
1499714115.4,286047010.6,N
1499714135.3,286047009.9,N
1499714155.1,286047010.8,N
1499714156.0,286047010.8,N
1499714175.8,286047012.3,N
1499714195.7,286047012.4,N
1499714215.5,286047011.4,N
1499714235.3,286047011.3,N
1499714255.1,286047014.0,N
1499714275.9,286047013.9,N
1499714295.7,286047014.0,N
1499714315.5,286047011.8,N
1499714335.4,286047012.1,N
1499714355.2,286047011.6,N
1499714375.0,286047012.2,N
1499714375.9,286047012.2,N
1499714395.8,286047012.0,N
1499714415.6,286047012.1,N
1499714435.4,286047012.4,N
1499714455.3,286047010.0,N
1499714475.1,286047012.1,N
1499714495.8,286047012.2,N
1499714515.7,286047011.7,N
1499714535.5,286047011.0,N
1499714555.3,286047013.6,N
1499714575.2,286047011.5,N
1499714595.9,286047013.7,N
1499714615.7,286047012.9,N
1499714635.6,286047012.8,N
1499714655.4,286047012.6,N
1499714675.2,286047013.2,N
1499714695.0,286047011.1,N
1499714696.0,286047011.1,N
1499714715.8,286047011.6,N
1499714735.6,286047014.0,N
1499714755.4,286047011.1,N
1499714775.3,286047012.1,N
1499714795.1,286047011.7,N
1499714815.8,286047011.8,N
1499714835.7,286047011.2,N
1499714855.5,286047010.9,N
1499714875.3,286047011.1,N
1499714895.2,286047011.6,N
1499714915.9,286047011.9,N
1499714935.7,286047013.5,N
1499714955.6,286047011.4,N
1499714975.4,286047011.6,N
1499714995.2,286047012.8,N
1499715015.1,286047015.6,N
1499715016.0,286047015.6,N
1499715035.8,286047013.2,N
1499715055.6,286047010.9,N
1499715075.5,286047013.5,N
1499715095.3,286047011.1,N
1499715115.1,286047013.3,N
1499715135.9,286047011.0,N
1499715155.7,286047011.0,N
1499715175.5,286047011.3,N
1499715195.3,286047013.9,N
1499715215.2,286047012.5,N
1499715235.0,286047015.3,N
1499715235.9,286047015.3,N
1499715255.7,286047015.6,N
1499715275.6,286047013.2,N
1499715295.4,286047015.5,N
1499715315.2,286047014.2,N
1499715335.1,286047014.4,N
1499715336.0,286047014.4,N
1499715355.8,286047014.9,N
1499715375.6,286047014.1,N
1499715395.5,286047015.8,N
1499715415.3,286047016.1,N
1499715435.1,286047016.2,N
1499715455.9,286047016.0,N
1499715475.7,286047016.1,N
1499715495.5,286047015.8,N
1499715515.4,286047018.5,N
1499715535.2,286047018.3,N
1499715555.0,286047018.1,N
1499715555.9,286047018.1,N
1499715575.8,286047020.1,N
1499715595.6,286047019.6,N
1499715615.4,286047018.9,N
1499715635.2,286047018.5,N
1499715655.1,286047018.6,N
1499715656.0,286047018.6,N
1499715675.8,286047020.0,N
1499715695.6,286047020.0,N
1499715715.5,286047020.0,N
1499715735.3,286047019.1,N
1499715755.1,286047022.0,N
1499715775.9,286047023.5,N
1499715795.7,286047021.5,N
1499715815.5,286047021.2,N
1499715835.4,286047019.4,N
1499715855.2,286047022.7,N
1499715875.0,286047022.2,N
1499715875.9,286047022.2,N
1499715895.8,286047023.2,N
1499715915.6,286047020.8,N
1499715935.4,286047022.7,N
1499715955.3,286047022.7,N
1499715975.1,286047022.6,N
1499715976.0,286047022.6,N
1499715995.8,286047022.8,N
1499716015.6,286047023.2,N
1499716035.5,286047025.2,N
1499716055.3,286047022.7,N
1499716075.1,286047022.6,N
1499716095.9,286047024.4,N
1499716115.7,286047024.7,N
1499716135.5,286047022.8,N
1499716155.4,286047022.5,N
1499716175.2,286047022.9,N
1499716195.0,286047025.1,N
1499716195.9,286047025.1,N
1499716215.8,286047025.0,N
1499716235.6,286047024.5,N
1499716255.4,286047024.6,N
1499716275.3,286047024.6,N
1499716295.1,286047022.8,N
1499716296.0,286047022.8,N
1499716315.8,286047023.0,N
1499716335.7,286047024.3,N
1499716355.5,286047024.1,N
1499716375.3,286047026.3,N
1499716395.2,286047026.7,N
1499716415.9,286047026.7,N
1499716435.7,286047026.7,N
1499716455.5,286047026.6,N
1499716475.4,286047025.5,N
1499716495.2,286047025.5,N
1499716515.0,286047026.0,N
1499716515.9,286047026.0,N
1499716535.8,286047025.7,N
1499716555.6,286047026.7,N
1499716575.4,286047026.0,N
1499716595.3,286047025.8,N
1499716615.1,286047025.3,N
1499716635.8,286047028.2,N
1499716655.7,286047027.4,N
1499716675.5,286047025.7,N
1499716695.3,286047027.5,N
1499716715.2,286047028.4,N
1499716735.9,286047027.5,N
1499716755.7,286047027.5,N
1499716775.6,286047029.8,N
1499716795.4,286047026.9,N
